| time (UTC) | temp C | wind direction | speed KPH | gust KPH | rain 1hr cm | rain 24hr cm | rain mn cm | humidity % | barometer mb |
| 20260510131011 | 13 | 193 | 3.2 | 11.3 | 0.00 | 0.91 | 0.00 | 88 | 1011.2 |
| 20260510130515 | 12 | 110 | 1.6 | 11.3 | 0.00 | 0.91 | 0.00 | 89 | 1011.2 |
| 20260510130029 | 12 | 121 | 3.2 | 11.3 | 0.00 | 0.91 | 0.00 | 89 | 1011.2 |
| 20260510125513 | 12 | 190 | 3.2 | 9.7 | 0.00 | 1.12 | 0.00 | 89 | 1011.2 |
| 20260510125014 | 12 | 148 | 1.6 | 6.4 | 0.00 | 1.12 | 0.00 | 89 | 1011.2 |
| 20260510124529 | 12 | 0 | 0.0 | 4.8 | 0.00 | 1.12 | 0.00 | 90 | 1011.3 |
| 20260510124015 | 12 | 159 | 1.6 | 8.0 | 0.00 | 1.12 | 0.00 | 90 | 1011.2 |
| 20260510123511 | 12 | 203 | 1.6 | 8.0 | 0.00 | 1.12 | 0.00 | 90 | 1011.2 |
| 20260510123028 | 12 | 217 | 1.6 | 8.0 | 0.00 | 1.12 | 0.00 | 90 | 1011.2 |
| 20260510122513 | 11 | 233 | 1.6 | 8.0 | 0.00 | 1.12 | 0.00 | 90 | 1011.1 |
| 20260510122011 | 11 | 108 | 1.6 | 8.0 | 0.00 | 1.12 | 0.00 | 91 | 1011.1 |
| 20260510121529 | 11 | 180 | 1.6 | 8.0 | 0.00 | 1.12 | 0.00 | 91 | 1011.2 |
| 20260510121013 | 11 | 149 | 3.2 | 8.0 | 0.00 | 1.12 | 0.00 | 91 | 1011.0 |
| 20260510120518 | 11 | 158 | 1.6 | 11.3 | 0.00 | 1.12 | 0.00 | 91 | 1011.0 |
| 20260510120030 | 11 | 141 | 3.2 | 11.3 | 0.00 | 1.12 | 0.00 | 91 | 1011.0 |
| 20260510115514 | 11 | 146 | 1.6 | 8.0 | 0.00 | 1.17 | 0.00 | 92 | 1011.0 |
| 20260510115016 | 11 | 0 | 0.0 | 9.7 | 0.00 | 1.17 | 0.00 | 92 | 1011.0 |
| 20260510114529 | 11 | 143 | 3.2 | 9.7 | 0.00 | 1.17 | 0.00 | 92 | 1011.0 |
| 20260510114014 | 11 | 210 | 1.6 | 9.7 | 0.00 | 1.17 | 0.00 | 92 | 1011.0 |
| 20260510113511 | 11 | 135 | 1.6 | 9.7 | 0.00 | 1.17 | 0.00 | 92 | 1010.9 |
| 20260510113029 | 11 | 239 | 3.2 | 9.7 | 0.00 | 1.17 | 0.00 | 92 | 1010.8 |
| 20260510112511 | 11 | 203 | 1.6 | 9.7 | 0.00 | 1.17 | 0.00 | 93 | 1010.8 |
| 20260510112017 | 11 | 148 | 3.2 | 11.3 | 0.00 | 1.17 | 0.00 | 93 | 1010.8 |
| 20260510111530 | 11 | 175 | 3.2 | 11.3 | 0.00 | 1.17 | 0.00 | 93 | 1010.9 |
| 20260510111013 | 11 | 158 | 1.6 | 12.9 | 0.00 | 1.17 | 0.00 | 93 | 1010.9 |
| 20260510110511 | 11 | 145 | 1.6 | 12.9 | 0.00 | 1.17 | 0.00 | 93 | 1010.8 |
| 20260510110030 | 11 | 155 | 3.2 | 9.7 | 0.00 | 1.17 | 0.00 | 93 | 1010.8 |
| 20260510105513 | 11 | 169 | 1.6 | 8.0 | 0.00 | 1.17 | 0.00 | 93 | 1010.7 |
| 20260510105013 | -17 | 0.0 | 0.0 | 0.00 | 1.17 | 0.00 | 1010.8 | ||
| 20260510104530 | -17 | 0.0 | 0.0 | 0.00 | 1.17 | 0.00 | 1010.8 | ||
| 20260510104011 | -17 | 0.0 | 0.0 | 0.00 | 1.17 | 0.00 | 1010.6 | ||
| 20260510103513 | -17 | 0.0 | 0.0 | 0.00 | 1.17 | 0.00 | 1010.4 | ||
| 20260510103029 | -17 | 0.0 | 0.0 | 0.00 | 1.17 | 0.00 | 1010.1 | ||
| 20260510102514 | -17 | 0.0 | 0.0 | 0.00 | 1.17 | 0.00 | 1010.1 | ||
| 20260510102014 | -17 | 0.0 | 0.0 | 0.00 | 1.17 | 0.00 | 1010.0 | ||
| 20260510101531 | -17 | 0.0 | 0.0 | 0.00 | 1.17 | 0.00 | 1009.9 | ||
| 20260510101013 | -17 | 0.0 | 0.0 | 0.00 | 1.17 | 0.00 | 1009.7 | ||
| 20260510100513 | -17 | 0.0 | 0.0 | 0.00 | 1.17 | 0.00 | 1009.7 | ||
| 20260510100030 | -17 | 0.0 | 0.0 | 0.00 | 1.17 | 0.00 | 1009.7 | ||
| 20260510095519 | -17 | 0.0 | 0.0 | 0.00 | 1.17 | 0.00 | 1009.6 | ||
| 20260510095017 | -17 | 0.0 | 0.0 | 0.00 | 1.17 | 0.00 | 1009.6 | ||
| 20260510094541 | -17 | 0.0 | 0.0 | 0.00 | 1.17 | 0.00 | 1009.5 | ||
| 20260510094012 | -17 | 0.0 | 0.0 | 0.00 | 1.17 | 0.00 | 1009.4 | ||
| 20260510093511 | -17 | 0.0 | 0.0 | 0.00 | 1.17 | 0.00 | 1009.4 | ||
| 20260510093035 | -17 | 0.0 | 0.0 | 0.00 | 1.17 | 0.00 | 1009.4 | ||
| 20260510092515 | -17 | 0.0 | 0.0 | 0.00 | 1.17 | 0.00 | 1009.3 | ||
| 20260510092014 | -17 | 0.0 | 0.0 | 0.00 | 1.17 | 0.00 | 1009.1 | ||
| 20260510091539 | -17 | 0.0 | 0.0 | 0.00 | 1.17 | 0.00 | 1009.1 | ||
| 20260510091013 | -17 | 0.0 | 0.0 | 0.00 | 1.17 | 0.00 | 1009.0 | ||
| 20260510090512 | -17 | 0.0 | 0.0 | 0.00 | 1.17 | 0.00 | 1009.1 | ||
| 20260510090033 | -17 | 0.0 | 0.0 | 0.00 | 1.17 | 0.00 | 1009.1 | ||
| 20260510085512 | -17 | 0.0 | 0.0 | 0.00 | 1.17 | 0.00 | 1009.1 | ||
| 20260510085010 | -17 | 0.0 | 0.0 | 0.00 | 1.17 | 0.00 | 1009.1 | ||
| 20260510084534 | -17 | 3.2 | 0.0 | 0.00 | 1.17 | 0.00 | 1009.2 | ||
| 20260510084012 | 10 | 3.2 | 14.5 | 0.00 | 1.17 | 0.00 | 92 | 1009.1 | |
| 20260510083514 | 10 | 161 | 4.8 | 14.5 | 0.00 | 1.17 | 0.00 | 92 | 1009.2 |
| 20260510083048 | 10 | 141 | 0.0 | 9.7 | 0.00 | 1.17 | 0.00 | 93 | 1009.1 |
| 20260510082513 | 10 | 122 | 0.0 | 8.0 | 0.00 | 1.17 | 0.00 | 93 | 1009.2 |
| 20260510082017 | 10 | 96 | 0.0 | 6.4 | 0.00 | 1.17 | 0.00 | 93 | 1009.0 |
| 20260510081531 | 10 | 217 | 3.2 | 9.7 | 0.00 | 1.17 | 0.00 | 93 | 1009.1 |
| 20260510081013 | 10 | 150 | 1.6 | 14.5 | 0.00 | 1.17 | 0.00 | 93 | 1009.2 |
| 20260510080512 | 10 | 159 | 1.6 | 14.5 | 0.00 | 1.17 | 0.00 | 93 | 1009.2 |
| 20260510080029 | 10 | 75 | 3.2 | 12.9 | 0.00 | 1.17 | 0.00 | 93 | 1009.3 |
| 20260510075512 | 10 | 96 | 3.2 | 12.9 | 0.00 | 1.17 | 0.00 | 92 | 1009.2 |
| 20260510075011 | 10 | 114 | 1.6 | 11.3 | 0.00 | 1.17 | 0.00 | 92 | 1009.1 |
| 20260510074532 | 10 | 219 | 3.2 | 11.3 | 0.00 | 1.17 | 0.00 | 92 | 1009.0 |
| 20260510074019 | 10 | 115 | 1.6 | 11.3 | 0.00 | 1.17 | 0.00 | 92 | 1009.2 |
| 20260510073513 | 10 | 134 | 0.0 | 9.7 | 0.00 | 1.17 | 0.00 | 92 | 1009.3 |
| 20260510073030 | 10 | 158 | 3.2 | 9.7 | 0.00 | 1.17 | 0.00 | 92 | 1009.6 |
| 20260510072516 | 10 | 199 | 1.6 | 6.4 | 0.00 | 1.17 | 0.00 | 92 | 1009.6 |
| 20260510072014 | 10 | 118 | 1.6 | 8.0 | 0.00 | 1.17 | 0.00 | 92 | 1009.7 |
| 20260510071535 | 11 | 137 | 0.0 | 9.7 | 0.00 | 1.17 | 0.00 | 92 | 1009.7 |
| 20260510071016 | 11 | 141 | 1.6 | 9.7 | 0.00 | 1.17 | 0.00 | 92 | 1009.8 |
| 20260510070513 | 11 | 152 | 3.2 | 8.0 | 0.00 | 1.17 | 0.00 | 92 | 1010.0 |
| 20260510070028 | 11 | 165 | 1.6 | 11.3 | 0.00 | 1.17 | 0.00 | 92 | 1009.9 |
| 20260510065512 | 11 | 203 | 0.0 | 11.3 | 0.00 | 1.17 | 0.00 | 92 | 1010.0 |
| 20260510065012 | 11 | 107 | 1.6 | 12.9 | 0.00 | 1.17 | 0.00 | 92 | 1010.1 |
| 20260510064530 | 11 | 169 | 1.6 | 12.9 | 0.00 | 1.17 | 0.00 | 92 | 1010.2 |
| 20260510064010 | 11 | 143 | 3.2 | 12.9 | 0.00 | 1.17 | 0.00 | 92 | 1010.1 |
| 20260510063513 | 11 | 194 | 0.0 | 4.8 | 0.00 | 1.17 | 0.00 | 91 | 1010.0 |
| 20260510063028 | 11 | 214 | 0.0 | 4.8 | 0.00 | 1.17 | 0.00 | 91 | 1010.0 |
| 20260510062514 | 11 | 212 | 0.0 | 4.8 | 0.00 | 1.17 | 0.00 | 91 | 1009.8 |
| 20260510062013 | 11 | 205 | 1.6 | 8.0 | 0.00 | 1.17 | 0.00 | 91 | 1009.9 |
| 20260510061533 | 11 | 0 | 1.6 | 8.0 | 0.00 | 1.17 | 0.00 | 91 | 1009.7 |
| 20260510061015 | 11 | 233 | 1.6 | 8.0 | 0.00 | 1.17 | 0.00 | 91 | 1009.7 |
| 20260510060512 | 11 | 148 | 1.6 | 11.3 | 0.00 | 1.17 | 0.00 | 91 | 1009.5 |
| 20260510060038 | 11 | 122 | 1.6 | 14.5 | 0.00 | 1.17 | 0.00 | 91 | 1009.4 |
| 20260510055512 | 11 | 160 | 1.6 | 14.5 | 0.00 | 1.17 | 0.00 | 91 | 1009.3 |
| 20260510055013 | 11 | 98 | 3.2 | 14.5 | 0.00 | 1.17 | 0.00 | 91 | 1009.2 |
| 20260510054537 | 11 | 225 | 1.6 | 6.4 | 0.00 | 1.17 | 0.00 | 91 | 1009.3 |
| 20260510054014 | 11 | 163 | 1.6 | 11.3 | 0.00 | 1.17 | 0.00 | 91 | 1009.3 |
| 20260510053511 | 11 | 200 | 3.2 | 12.9 | 0.00 | 1.17 | 0.00 | 91 | 1009.5 |
| 20260510053029 | 11 | 120 | 4.8 | 12.9 | 0.00 | 1.17 | 0.00 | 91 | 1009.3 |
| 20260510052516 | 11 | 211 | 1.6 | 8.0 | 0.00 | 1.17 | 0.00 | 91 | 1009.4 |
| 20260510052013 | 11 | 172 | 1.6 | 9.7 | 0.00 | 1.17 | 0.00 | 91 | 1009.5 |
| 20260510051533 | 11 | 148 | 1.6 | 9.7 | 0.00 | 1.17 | 0.00 | 91 | 1009.4 |
| 20260510051013 | 11 | 152 | 3.2 | 9.7 | 0.00 | 1.17 | 0.00 | 91 | 1009.3 |
| 20260510050513 | 11 | 118 | 0.0 | 8.0 | 0.00 | 1.17 | 0.00 | 91 | 1009.3 |
| 20260510050031 | 11 | 174 | 3.2 | 6.4 | 0.00 | 1.17 | 0.00 | 91 | 1009.4 |
| 20260510045516 | 11 | 207 | 0.0 | 6.4 | 0.00 | 1.17 | 0.00 | 91 | 1009.5 |
| 20260510045014 | 11 | 113 | 0.0 | 6.4 | 0.00 | 1.17 | 0.00 | 91 | 1009.4 |
| 20260510044530 | 11 | 141 | 1.6 | 6.4 | 0.00 | 1.17 | 0.00 | 91 | 1009.4 |
| 20260510044012 | 11 | 122 | 1.6 | 4.8 | 0.00 | 1.17 | 0.00 | 91 | 1009.5 |
| 20260510043513 | 11 | 122 | 0.0 | 4.8 | 0.00 | 1.17 | 0.00 | 91 | 1009.6 |
| 20260510043033 | 11 | 143 | 0.0 | 8.0 | 0.00 | 1.17 | 0.00 | 90 | 1009.6 |
| 20260510042515 | 11 | 136 | 3.2 | 8.0 | 0.00 | 1.17 | 0.00 | 90 | 1009.6 |
| 20260510042012 | 11 | 62 | 1.6 | 8.0 | 0.00 | 1.17 | 0.00 | 90 | 1009.5 |
| 20260510041528 | 11 | 221 | 1.6 | 8.0 | 0.00 | 1.17 | 0.00 | 90 | 1009.5 |
| 20260510041011 | 11 | 158 | 3.2 | 8.0 | 0.00 | 1.17 | 0.00 | 90 | 1009.4 |
| 20260510040511 | 11 | 203 | 1.6 | 6.4 | 0.00 | 1.17 | 0.00 | 90 | 1009.5 |
| 20260510040030 | 11 | 0 | 0.0 | 9.7 | 0.00 | 1.17 | 0.00 | 90 | 1009.5 |
| 20260510035510 | 11 | 149 | 0.0 | 9.7 | 0.00 | 1.17 | 1.17 | 90 | 1009.5 |
| 20260510035015 | 11 | 132 | 1.6 | 9.7 | 0.00 | 1.17 | 1.17 | 90 | 1009.4 |
| 20260510034528 | 11 | 121 | 1.6 | 6.4 | 0.00 | 1.17 | 1.17 | 90 | 1009.3 |
| 20260510034015 | 11 | 126 | 0.0 | 4.8 | 0.00 | 1.17 | 1.17 | 90 | 1009.4 |
| 20260510033517 | 11 | 0 | 0.0 | 6.4 | 0.00 | 1.17 | 1.17 | 90 | 1009.6 |
| 20260510033029 | 11 | 0 | 0.0 | 6.4 | 0.00 | 1.17 | 1.17 | 90 | 1009.3 |
| 20260510032512 | 11 | 135 | 0.0 | 4.8 | 0.00 | 1.17 | 1.17 | 90 | 1009.2 |
| 20260510032013 | 11 | 130 | 0.0 | 4.8 | 0.00 | 1.17 | 1.17 | 90 | 1009.2 |
| 20260510031531 | 11 | 134 | 1.6 | 4.8 | 0.00 | 1.17 | 1.17 | 90 | 1009.3 |
| 20260510031013 | 11 | 134 | 0.0 | 8.0 | 0.00 | 1.17 | 1.17 | 90 | 1009.3 |
| 20260510030521 | 11 | 152 | 1.6 | 8.0 | 0.00 | 1.17 | 1.17 | 89 | 1009.3 |
| 20260510030029 | 11 | 0 | 0.0 | 8.0 | 0.00 | 1.17 | 1.17 | 89 | 1009.3 |
| 20260510025515 | 11 | 0 | 1.6 | 8.0 | 0.00 | 1.17 | 1.17 | 89 | 1009.3 |
| 20260510025012 | 11 | 129 | 3.2 | 6.4 | 0.00 | 1.17 | 1.17 | 89 | 1009.2 |
| 20260510024530 | 11 | 134 | 0.0 | 4.8 | 0.00 | 1.17 | 1.17 | 89 | 1009.3 |
| 20260510024014 | 11 | 143 | 0.0 | 6.4 | 0.00 | 1.17 | 1.17 | 89 | 1009.5 |
| 20260510023513 | 11 | 0 | 0.0 | 9.7 | 0.00 | 1.17 | 1.17 | 89 | 1009.4 |
| 20260510023028 | 11 | 141 | 1.6 | 9.7 | 0.00 | 1.17 | 1.17 | 89 | 1009.5 |
| 20260510022513 | 11 | 121 | 1.6 | 11.3 | 0.00 | 1.17 | 1.17 | 89 | 1009.4 |
| 20260510022013 | 11 | 146 | 4.8 | 11.3 | 0.00 | 1.17 | 1.17 | 89 | 1009.4 |
| 20260510021528 | 11 | 141 | 1.6 | 8.0 | 0.00 | 1.17 | 1.17 | 89 | 1009.4 |
| 20260510021013 | 11 | 136 | 1.6 | 8.0 | 0.00 | 1.17 | 1.17 | 90 | 1009.4 |
| 20260510020515 | 11 | 152 | 1.6 | 8.0 | 0.00 | 1.17 | 1.17 | 90 | 1009.5 |
| 20260510020028 | 11 | 148 | 0.0 | 3.2 | 0.00 | 1.17 | 1.17 | 90 | 1009.5 |
| 20260510015514 | 11 | 146 | 0.0 | 3.2 | 0.00 | 1.17 | 1.17 | 90 | 1009.6 |
| 20260510015011 | 11 | 0 | 0.0 | 3.2 | 0.00 | 1.17 | 1.17 | 90 | 1009.7 |
| 20260510014535 | 11 | 134 | 0.0 | 4.8 | 0.00 | 1.17 | 1.17 | 90 | 1009.5 |
| 20260510014013 | 11 | 0 | 0.0 | 4.8 | 0.00 | 1.17 | 1.17 | 90 | 1009.4 |
| 20260510013511 | 11 | 134 | 0.0 | 6.4 | 0.00 | 1.17 | 1.17 | 90 | 1009.2 |
| 20260510013028 | 11 | 0 | 0.0 | 6.4 | 0.00 | 1.17 | 1.17 | 90 | 1009.3 |
| 20260510012510 | 11 | 135 | 1.6 | 6.4 | 0.00 | 1.17 | 1.17 | 90 | 1009.3 |
| 20260510012012 | 11 | 139 | 1.6 | 6.4 | 0.00 | 1.17 | 1.17 | 90 | 1009.5 |
| 20260510011531 | 11 | 141 | 0.0 | 8.0 | 0.00 | 1.17 | 1.17 | 90 | 1009.4 |
| 20260510011013 | 11 | 127 | 3.2 | 8.0 | 0.00 | 1.17 | 1.17 | 90 | 1009.5 |
| 20260510010511 | 11 | 127 | 1.6 | 4.8 | 0.00 | 1.17 | 1.17 | 90 | 1009.5 |
| 20260510010030 | 11 | 132 | 0.0 | 4.8 | 0.00 | 1.17 | 1.17 | 90 | 1009.5 |
| 20260510005512 | 11 | 0 | 0.0 | 4.8 | 0.00 | 1.17 | 1.17 | 90 | 1009.4 |
| 20260510005013 | 11 | 148 | 0.0 | 4.8 | 0.00 | 1.17 | 1.17 | 90 | 1009.4 |
| 20260510004529 | 11 | 129 | 0.0 | 6.4 | 0.00 | 1.17 | 1.17 | 90 | 1009.3 |
| 20260510004010 | 11 | 129 | 1.6 | 6.4 | 0.00 | 1.17 | 1.17 | 91 | 1009.2 |
| 20260510003513 | 11 | 124 | 0.0 | 1.6 | 0.00 | 1.17 | 1.17 | 91 | 1009.3 |
| 20260510003038 | 11 | 0 | 0.0 | 4.8 | 0.00 | 1.17 | 1.17 | 91 | 1009.4 |
| 20260510002510 | 11 | 0 | 0.0 | 4.8 | 0.00 | 1.17 | 1.17 | 91 | 1009.3 |
| 20260510002010 | 11 | 162 | 0.0 | 3.2 | 0.00 | 1.17 | 1.17 | 90 | 1009.1 |
| 20260510001530 | 11 | 0 | 0.0 | 4.8 | 0.00 | 1.17 | 1.17 | 90 | 1009.0 |
| 20260510001011 | 11 | 0 | 0.0 | 4.8 | 0.00 | 1.17 | 1.17 | 90 | 1008.7 |
| 20260510000510 | 11 | 0 | 0.0 | 6.4 | 0.00 | 1.17 | 1.17 | 90 | 1008.8 |
| 20260510000030 | 11 | 129 | 0.0 | 6.4 | 0.00 | 1.17 | 1.17 | 90 | 1008.6 |
| 20260509235512 | 11 | 104 | 1.6 | 6.4 | 0.00 | 1.17 | 1.17 | 90 | 1008.6 |
| 20260509235013 | 11 | 0 | 1.6 | 6.4 | 0.00 | 1.17 | 1.17 | 90 | 1008.7 |
| 20260509234538 | 11 | 0 | 0.0 | 4.8 | 0.00 | 1.17 | 1.17 | 90 | 1008.6 |
| 20260509234011 | 11 | 156 | 1.6 | 8.0 | 0.00 | 1.17 | 1.17 | 90 | 1008.6 |
| 20260509233513 | 11 | 149 | 1.6 | 8.0 | 0.00 | 1.17 | 1.17 | 90 | 1008.5 |
| 20260509233032 | 11 | 159 | 1.6 | 9.7 | 0.00 | 1.17 | 1.17 | 90 | 1008.5 |
| 20260509232512 | 11 | 203 | 3.2 | 9.7 | 0.00 | 1.17 | 1.17 | 90 | 1008.3 |
| 20260509232014 | 12 | 134 | 0.0 | 9.7 | 0.00 | 1.17 | 1.17 | 90 | 1008.2 |
| 20260509231535 | 12 | 337 | 0.0 | 9.7 | 0.00 | 1.17 | 1.17 | 90 | 1008.1 |
| 20260509231014 | 12 | 136 | 1.6 | 9.7 | 0.00 | 1.17 | 1.17 | 90 | 1008.0 |
| 20260509230511 | 12 | 231 | 1.6 | 6.4 | 0.00 | 1.17 | 1.17 | 90 | 1008.1 |
| 20260509230031 | 12 | 0 | 1.6 | 8.0 | 0.00 | 1.17 | 1.17 | 90 | 1008.0 |
| 20260509225514 | 12 | 0 | 0.0 | 11.3 | 0.00 | 1.17 | 1.17 | 90 | 1008.2 |
| 20260509225011 | 12 | 170 | 1.6 | 12.9 | 0.00 | 1.17 | 1.17 | 91 | 1008.3 |
| 20260509224533 | 12 | 143 | 4.8 | 12.9 | 0.00 | 1.17 | 1.17 | 91 | 1008.2 |
| 20260509224012 | 12 | 148 | 3.2 | 12.9 | 0.00 | 1.17 | 1.17 | 91 | 1008.2 |
| 20260509223513 | 12 | 155 | 3.2 | 12.9 | 0.00 | 1.17 | 1.17 | 92 | 1008.4 |
| 20260509223031 | 12 | 166 | 1.6 | 11.3 | 0.00 | 1.17 | 1.17 | 92 | 1008.3 |
| 20260509222511 | 12 | 115 | 1.6 | 8.0 | 0.00 | 1.17 | 1.17 | 92 | 1008.3 |
| 20260509222010 | 12 | 139 | 1.6 | 6.4 | 0.00 | 1.17 | 1.17 | 92 | 1008.3 |
| 20260509221530 | 12 | 169 | 1.6 | 9.7 | 0.00 | 1.17 | 1.17 | 93 | 1008.3 |
| 20260509221012 | 12 | 156 | 3.2 | 9.7 | 0.00 | 1.17 | 1.17 | 92 | 1008.3 |
| 20260509220511 | 12 | 162 | 0.0 | 12.9 | 0.00 | 1.17 | 1.17 | 93 | 1008.3 |
| 20260509220030 | 12 | 146 | 1.6 | 12.9 | 0.00 | 1.17 | 1.17 | 93 | 1008.3 |
| 20260509215516 | 12 | 212 | 1.6 | 6.4 | 0.00 | 1.17 | 1.17 | 93 | 1008.4 |
| 20260509215013 | 12 | 181 | 1.6 | 6.4 | 0.00 | 1.17 | 1.17 | 93 | 1008.5 |
| 20260509214527 | 12 | 121 | 1.6 | 6.4 | 0.00 | 1.17 | 1.17 | 93 | 1008.5 |
| 20260509214014 | 12 | 211 | 1.6 | 4.8 | 0.00 | 1.17 | 1.17 | 94 | 1008.6 |
| 20260509213511 | 12 | 147 | 0.0 | 6.4 | 0.00 | 1.17 | 1.17 | 94 | 1008.6 |
| 20260509213030 | 12 | 61 | 1.6 | 6.4 | 0.00 | 1.17 | 1.17 | 94 | 1008.7 |
| 20260509212511 | 11 | 132 | 1.6 | 8.0 | 0.00 | 1.17 | 1.17 | 94 | 1008.6 |
| 20260509212014 | 11 | 155 | 1.6 | 8.0 | 0.00 | 1.17 | 1.17 | 94 | 1008.6 |
| 20260509211528 | 11 | 200 | 1.6 | 8.0 | 0.00 | 1.17 | 1.17 | 94 | 1008.6 |
| 20260509211011 | 12 | 0 | 0.0 | 4.8 | 0.00 | 1.17 | 1.17 | 94 | 1008.5 |
| 20260509210512 | 11 | 0 | 1.6 | 11.3 | 0.00 | 1.17 | 1.17 | 94 | 1008.5 |
| 20260509210030 | 11 | 141 | 1.6 | 11.3 | 0.00 | 1.17 | 1.17 | 94 | 1008.6 |
| 20260509205512 | 11 | 115 | 1.6 | 9.7 | 0.00 | 1.17 | 1.17 | 94 | 1008.7 |
| 20260509205011 | 11 | 115 | 1.6 | 16.1 | 0.00 | 1.17 | 1.17 | 94 | 1008.8 |
| 20260509204530 | 11 | 155 | 0.0 | 16.1 | 0.00 | 1.17 | 1.17 | 94 | 1008.9 |
| 20260509204011 | 11 | 134 | 3.2 | 11.3 | 0.00 | 1.17 | 1.17 | 94 | 1008.9 |
| 20260509203511 | 11 | 153 | 1.6 | 8.0 | 0.00 | 1.17 | 1.17 | 94 | 1008.9 |
| 20260509203037 | 11 | 127 | 1.6 | 4.8 | 0.00 | 1.17 | 1.17 | 94 | 1009.0 |
| 20260509202512 | 11 | 0 | 0.0 | 4.8 | 0.00 | 1.17 | 1.17 | 94 | 1009.0 |
| 20260509202015 | 11 | 160 | 1.6 | 4.8 | 0.00 | 1.17 | 1.17 | 94 | 1009.1 |
| 20260509201530 | 11 | 93 | 1.6 | 4.8 | 0.00 | 1.17 | 1.17 | 94 | 1009.1 |
| 20260509201017 | 11 | 246 | 1.6 | 6.4 | 0.00 | 1.17 | 1.17 | 94 | 1009.2 |
| 20260509200513 | 11 | 136 | 0.0 | 6.4 | 0.03 | 1.17 | 1.17 | 94 | 1009.3 |
| 20260509200029 | 11 | 0 | 1.6 | 6.4 | 0.03 | 1.17 | 1.17 | 94 | 1009.3 |
| 20260509195513 | 11 | 0 | 0.0 | 3.2 | 0.05 | 1.17 | 1.17 | 94 | 1009.5 |
| 20260509195011 | 10 | 137 | 0.0 | 4.8 | 0.05 | 1.17 | 1.17 | 94 | 1009.4 |
| 20260509194531 | 10 | 0 | 0.0 | 4.8 | 0.08 | 1.17 | 1.17 | 94 | 1009.6 |
| 20260509194012 | 10 | 0 | 0.0 | 6.4 | 0.08 | 1.17 | 1.17 | 94 | 1009.6 |
| 20260509193515 | 10 | 0 | 0.0 | 6.4 | 0.08 | 1.17 | 1.17 | 94 | 1009.7 |
| 20260509193037 | 10 | 115 | 1.6 | 6.4 | 0.10 | 1.17 | 1.17 | 94 | 1009.8 |
| 20260509192514 | 10 | 0 | 0.0 | 1.6 | 0.10 | 1.17 | 1.17 | 94 | 1009.8 |
| 20260509192015 | 10 | 0 | 0.0 | 4.8 | 0.10 | 1.17 | 1.17 | 94 | 1009.9 |
| 20260509191528 | 10 | 0 | 0.0 | 4.8 | 0.10 | 1.17 | 1.17 | 94 | 1009.8 |
| 20260509191016 | 10 | 125 | 0.0 | 11.3 | 0.08 | 1.14 | 1.14 | 94 | 1009.9 |
| 20260509190513 | 10 | 0 | 3.2 | 11.3 | 0.10 | 1.14 | 1.14 | 94 | 1010.0 |
| 20260509190029 | 10 | 167 | 0.0 | 4.8 | 0.10 | 1.14 | 1.14 | 94 | 1010.1 |
| 20260509185512 | 10 | 148 | 0.0 | 3.2 | 0.08 | 1.12 | 1.12 | 94 | 1010.2 |
| 20260509185011 | 10 | 0 | 0.0 | 3.2 | 0.08 | 1.12 | 1.12 | 94 | 1010.2 |
| 20260509184813 | 10 | 141 | 0.0 | 4.8 | 0.05 | 1.09 | 1.09 | 94 | 1010.2 |
| 20260509184015 | 10 | 0 | 0.0 | 4.8 | 0.05 | 1.09 | 1.09 | 94 | 1010.2 |
| 20260509183513 | 10 | 134 | 0.0 | 3.2 | 0.08 | 1.09 | 1.09 | 94 | 1010.2 |
| 20260509183032 | 10 | 0 | 0.0 | 3.2 | 0.05 | 1.07 | 1.07 | 94 | 1010.2 |
| 20260509182930 | 10 | 125 | 0.0 | 1.6 | 0.05 | 1.07 | 1.07 | 94 | 1010.2 |
| 20260509182743 | 10 | 125 | 0.0 | 1.6 | 0.05 | 1.07 | 1.07 | 94 | 1010.2 |
| 20260509182712 | 10 | 125 | 0.0 | 1.6 | 0.05 | 1.07 | 1.07 | 94 | 1010.2 |
| 20260509182613 | 10 | 125 | 0.0 | 1.6 | 0.05 | 1.07 | 1.07 | 94 | 1010.2 |
| 20260509182514 | 10 | 125 | 0.0 | 1.6 | 0.05 | 1.07 | 1.07 | 94 | 1010.2 |
| 20260509182013 | 10 | 0 | 0.0 | 4.8 | 0.08 | 1.07 | 1.07 | 94 | 1010.2 |
| 20260509181529 | 9 | 0 | 0.0 | 4.8 | 0.08 | 1.07 | 1.07 | 94 | 1010.2 |
| 20260509181049 | 9 | 127 | 0.0 | 3.2 | 0.05 | 1.04 | 1.04 | 94 | 1010.2 |
| 20260509180828 | 9 | 145 | 0.0 | 3.2 | 0.05 | 1.04 | 1.04 | 94 | 1010.3 |
| 20260509180028 | 9 | 141 | 0.0 | 3.2 | 0.08 | 1.04 | 1.04 | 94 | 1010.4 |
| 20260509175512 | 9 | 146 | 0.0 | 3.2 | 0.08 | 1.04 | 1.04 | 94 | 1010.3 |
| 20260509175013 | 9 | 135 | 0.0 | 3.2 | 0.08 | 1.04 | 1.04 | 94 | 1010.2 |
| 20260509174531 | 9 | 0 | 0.0 | 3.2 | 0.08 | 1.04 | 1.04 | 94 | 1010.4 |
| 20260509174014 | 9 | 0 | 0.0 | 3.2 | 0.05 | 1.02 | 1.02 | 94 | 1010.4 |
| 20260509173512 | 9 | 122 | 0.0 | 4.8 | 0.08 | 1.02 | 1.02 | 94 | 1010.5 |
| 20260509173029 | 8 | 129 | 0.0 | 4.8 | 0.08 | 1.02 | 1.02 | 94 | 1010.5 |
| 20260509172511 | 8 | 155 | 0.0 | 6.4 | 0.08 | 1.02 | 1.02 | 94 | 1010.6 |
| 20260509172405 | 8 | 133 | 3.2 | 6.4 | 0.05 | 0.99 | 0.99 | 93 | 1010.6 |
| 20260509172216 | 8 | 133 | 3.2 | 6.4 | 0.05 | 0.99 | 0.99 | 93 | 1010.6 |
| 20260509172045 | 8 | 133 | 3.2 | 6.4 | 0.05 | 0.99 | 0.99 | 93 | 1010.6 |
| 20260509172013 | 8 | 133 | 3.2 | 6.4 | 0.05 | 0.99 | 0.99 | 93 | 1010.6 |
| 20260509171531 | 8 | 142 | 0.0 | 3.2 | 0.05 | 0.99 | 0.99 | 93 | 1010.7 |
| 20260509171019 | 8 | 0 | 0.0 | 3.2 | 0.08 | 0.99 | 0.99 | 94 | 1010.7 |
| 20260509170514 | 8 | 242 | 0.0 | 1.6 | 0.08 | 0.99 | 0.99 | 94 | 1010.7 |
| 20260509170037 | 8 | 0 | 0.0 | 6.4 | 0.08 | 0.97 | 0.97 | 94 | 1010.7 |
| 20260509165513 | 8 | 155 | 1.6 | 6.4 | 0.08 | 0.97 | 0.97 | 93 | 1010.7 |
| 20260509165016 | 8 | 0 | 0.0 | 6.4 | 0.08 | 0.97 | 0.97 | 93 | 1010.7 |
| 20260509164536 | 8 | 119 | 0.0 | 3.2 | 0.10 | 0.97 | 0.97 | 94 | 1010.7 |
| 20260509164018 | 8 | 0 | 0.0 | 3.2 | 0.10 | 0.97 | 0.97 | 94 | 1010.9 |
| 20260509163514 | 8 | 0 | 0.0 | 4.8 | 0.08 | 0.94 | 0.94 | 94 | 1010.9 |
| 20260509163033 | 8 | 0 | 0.0 | 4.8 | 0.10 | 0.94 | 0.94 | 93 | 1011.0 |
| 20260509162516 | 8 | 141 | 0.0 | 3.2 | 0.10 | 0.94 | 0.94 | 93 | 1011.0 |
| 20260509162020 | 8 | 139 | 0.0 | 3.2 | 0.13 | 0.94 | 0.94 | 93 | 1011.2 |
| 20260509161648 | 8 | 0 | 0.0 | 3.2 | 0.13 | 0.94 | 0.94 | 93 | 1011.3 |
| 20260509161617 | 8 | 0 | 0.0 | 3.2 | 0.13 | 0.94 | 0.94 | 93 | 1011.3 |
| 20260509161534 | 8 | 0 | 0.0 | 3.2 | 0.13 | 0.94 | 0.94 | 93 | 1011.3 |
| 20260509161012 | 8 | 0 | 0.0 | 3.2 | 0.13 | 0.91 | 0.91 | 94 | 1011.4 |
| 20260509160513 | 8 | 0 | 0.0 | 3.2 | 0.15 | 0.91 | 0.91 | 93 | 1011.4 |
| 20260509160248 | 8 | 136 | 0.0 | 3.2 | 0.13 | 0.89 | 0.89 | 94 | 1011.5 |
| 20260509155552 | 8 | 134 | 0.0 | 1.6 | 0.15 | 0.89 | 0.89 | 93 | 1011.5 |
| 20260509154534 | 8 | 0 | 0.0 | 4.8 | 0.18 | 0.86 | 0.86 | 94 | 1011.8 |
| 20260509154012 | 8 | 0 | 0.0 | 4.8 | 0.20 | 0.86 | 0.86 | 94 | 1011.9 |
| 20260509153514 | 8 | 139 | 0.0 | 1.6 | 0.20 | 0.86 | 0.86 | 94 | 1011.9 |
| 20260509153235 | 8 | 0 | 0.0 | 4.8 | 0.20 | 0.84 | 0.84 | 94 | 1012.1 |
| 20260509153038 | 8 | 0 | 0.0 | 4.8 | 0.20 | 0.84 | 0.84 | 94 | 1012.1 |
| 20260509152619 | 7 | 0 | 0.0 | 4.8 | 0.23 | 0.84 | 0.84 | 93 | 1012.1 |
| 20260509152543 | 7 | 0 | 0.0 | 4.8 | 0.23 | 0.84 | 0.84 | 93 | 1012.1 |
| 20260509152512 | 7 | 0 | 0.0 | 4.8 | 0.23 | 0.84 | 0.84 | 93 | 1012.1 |
| 20260509152013 | 7 | 124 | 0.0 | 4.8 | 0.23 | 0.81 | 0.81 | 93 | 1012.3 |
| 20260509151530 | 7 | 0 | 0.0 | 1.6 | 0.23 | 0.79 | 0.79 | 93 | 1012.2 |
| 20260509151012 | 7 | 0 | 0.0 | 1.6 | 0.25 | 0.79 | 0.79 | 93 | 1012.3 |
| 20260509150514 | 7 | 207 | 0.0 | 8.0 | 0.25 | 0.76 | 0.76 | 93 | 1012.4 |
| 20260509150031 | 7 | 0 | 3.2 | 8.0 | 0.28 | 0.76 | 0.76 | 93 | 1012.3 |
| 20260509145512 | 7 | 122 | 1.6 | 4.8 | 0.28 | 0.74 | 0.74 | 93 | 1012.2 |
| 20260509145033 | 7 | 144 | 0.0 | 3.2 | 0.28 | 0.71 | 0.71 | 93 | 1012.3 |
| 20260509144532 | 7 | 0 | 0.0 | 3.2 | 0.28 | 0.69 | 0.69 | 93 | 1012.2 |
| 20260509144013 | 7 | 0 | 0.0 | 1.6 | 0.28 | 0.66 | 0.66 | 93 | 1012.3 |
| 20260509143512 | 7 | 0 | 0.0 | 1.6 | 0.28 | 0.64 | 0.64 | 93 | 1012.2 |
| 20260509143031 | 7 | 116 | 0.0 | 1.6 | 0.30 | 0.64 | 0.64 | 93 | 1012.1 |
| 20260509142514 | 7 | 122 | 0.0 | 3.2 | 0.30 | 0.61 | 0.61 | 93 | 1012.2 |
| 20260509142011 | 7 | 0 | 0.0 | 3.2 | 0.30 | 0.58 | 0.58 | 93 | 1012.1 |
| 20260509141531 | 7 | 0 | 0.0 | 1.6 | 0.28 | 0.56 | 0.56 | 93 | 1012.1 |
| 20260509141015 | 7 | 0 | 0.0 | 1.6 | 0.28 | 0.53 | 0.53 | 93 | 1012.1 |
| 20260509140512 | 7 | 134 | 0.0 | 1.6 | 0.25 | 0.51 | 0.51 | 93 | 1012.1 |
| 20260509140032 | 7 | 0 | 0.0 | 1.6 | 0.23 | 0.48 | 0.48 | 93 | 1012.0 |
| 20260509135515 | 7 | 0 | 0.0 | 1.6 | 0.20 | 0.46 | 0.46 | 93 | 1012.1 |
| 20260509135010 | 7 | 0 | 0.0 | 1.6 | 0.18 | 0.43 | 0.43 | 93 | 1012.0 |
| 20260509134531 | 7 | 0 | 0.0 | 1.6 | 0.18 | 0.41 | 0.41 | 93 | 1012.0 |
| 20260509134015 | 7 | 0 | 0.0 | 4.8 | 0.18 | 0.38 | 0.38 | 93 | 1012.0 |
| 20260509133510 | 7 | 0 | 0.0 | 4.8 | 0.15 | 0.36 | 0.36 | 92 | 1011.9 |
| 20260509133029 | 7 | 134 | 0.0 | 4.8 | 0.15 | 0.33 | 0.33 | 92 | 1011.9 |
| 20260509132511 | 7 | 0 | 0.0 | 1.6 | 0.15 | 0.30 | 0.30 | 92 | 1012.0 |
| 20260509132014 | 7 | 0 | 0.0 | 1.6 | 0.15 | 0.28 | 0.28 | 92 | 1011.9 |
| 20260509131534 | 7 | 0 | 0.0 | 0.0 | 0.18 | 0.28 | 0.28 | 92 | 1011.9 |
| 20260509131016 | 7 | 0 | 0.0 | 0.0 | 0.15 | 0.25 | 0.25 | 92 | 1011.8 |